Location: Greenwich
(51.4790°N, 0.0090°E)
Time: 15:26:53
(UTC+01:00)

Explorer 7 - Pass Details

Date: 20 April 2024
Orbit: 467 x 625 km, 50.3° (Epoch: 24 May)

Event Time Altitude Azimuth Distance (km) Brightness Sun altitude
Rises 11:03:41 0° 192° (SSW) 2,881 10.9 43.9°
Reaches altitude 10° 11:06:57 10° 167° (SSE) 1,995 10.5 44.3°
Maximum altitude 11:09:20 14° 136° (SE) 1,746 10.6 44.5°
Drops below altitude 10° 11:11:44 10° 105° (ESE) 2,008 10.4 44.7°
Sets 11:15:03 0° 80° (E) 2,914 10.8 45.1°
